When you browse on this site, cookies collect data to enhance your experience and personalize the content and advertising you see.
Visit our Privacy Policy to learn more. By continuing to use the site, you agree to this use of cookies and data.
  • In Hungary
  • List of Countries
  • For 7 days
  • Water Temperature
  • Weather Map
  • News
  • Weather Widgets
  • user-avatar
    Login

    Hourly Weather Staromakarovo

    Today, 20 October, Sunday

    Time Temperature Precipitation Wind Pressure Humidity
    00:00 -1°C° 0 mm 4 mps 753 mmHg 69%
    01:00 -1°C° 0 mm 4 mps 753 mmHg 69%
    02:00 -2°C° 0 mm 4 mps 753 mmHg 69%
    03:00 -2°C° 0 mm 4 mps 753 mmHg 69%
    04:00 -1°C° 0 mm 3 mps 754 mmHg 70%
    05:00 -1°C° 0 mm 3 mps 754 mmHg 69%
    06:00 -2°C° 0 mm 3 mps 755 mmHg 67%
    07:00 -3°C° 0 mm 4 mps 755 mmHg 66%
    08:00 -2°C° 0 mm 4 mps 755 mmHg 63%
    09:00 -2°C° 0 mm 4 mps 755 mmHg 60%
    10:00 -1°C° 0 mm 4 mps 755 mmHg 58%
    11:00 -1°C° 0 mm 4 mps 755 mmHg 57%
    12:00 0°C° 0 mm 4 mps 755 mmHg 55%
    13:00 +1°C° 0 mm 4 mps 755 mmHg 54%
    14:00 +2°C° 0 mm 3 mps 755 mmHg 55%
    15:00 +2°C° 0 mm 3 mps 755 mmHg 55%
    16:00 +2°C° 0 mm 3 mps 755 mmHg 56%
    17:00 +2°C° 0 mm 3 mps 756 mmHg 57%
    18:00 +2°C° 0 mm 3 mps 756 mmHg 59%
    19:00 +2°C° 0 mm 3 mps 756 mmHg 61%
    20:00 +1°C° 0 mm 3 mps 756 mmHg 61%
    21:00 0°C° 0 mm 4 mps 755 mmHg 60%
    22:00 0°C° 0 mm 4 mps 755 mmHg 60%
    23:00 -1°C° 0 mm 5 mps 755 mmHg 59%

    Tomorrow, 21 October, Monday

    Time Temperature Precipitation Wind Pressure Humidity
    00:00 -1°C° 0 mm 5 mps 755 mmHg 59%
    01:00 -1°C° 0 mm 5 mps 755 mmHg 59%
    02:00 -2°C° 0 mm 5 mps 755 mmHg 60%
    03:00 -2°C° 0 mm 5 mps 755 mmHg 61%
    04:00 -2°C° 0 mm 5 mps 755 mmHg 62%
    05:00 -2°C° 0 mm 5 mps 755 mmHg 62%
    06:00 -2°C° 0 mm 5 mps 755 mmHg 61%
    07:00 -3°C° 0 mm 6 mps 754 mmHg 61%
    08:00 -3°C° 0 mm 6 mps 754 mmHg 59%
    09:00 -2°C° 0 mm 6 mps 754 mmHg 58%
    10:00 -2°C° 0 mm 6 mps 754 mmHg 57%
    11:00 -2°C° 0.2 mm 6 mps 754 mmHg 60%
    12:00 -1°C° 0.2 mm 6 mps 753 mmHg 62%
    13:00 -1°C° 0.2 mm 6 mps 753 mmHg 65%
    14:00 -1°C° 0.1 mm 6 mps 753 mmHg 65%
    15:00 -1°C° 0.1 mm 6 mps 753 mmHg 65%
    16:00 +1°C° 0.1 mm 6 mps 752 mmHg 65%
    17:00 +1°C° 0 mm 6 mps 752 mmHg 64%
    18:00 +1°C° 0 mm 6 mps 752 mmHg 63%
    19:00 +2°C° 0 mm 6 mps 752 mmHg 62%
    20:00 +2°C° 0 mm 6 mps 751 mmHg 62%
    21:00 +2°C° 0 mm 6 mps 751 mmHg 62%
    22:00 0°C° 0 mm 7 mps 751 mmHg 62%
    23:00 0°C° 0 mm 7 mps 750 mmHg 63%

    Day after tomorrow, 22 October, Tuesday

    Time Temperature Precipitation Wind Pressure Humidity
    00:00 0°C° 0 mm 7 mps 750 mmHg 63%
    01:00 0°C° 0 mm 7 mps 749 mmHg 64%
    02:00 0°C° 0 mm 7 mps 749 mmHg 64%
    03:00 0°C° 0 mm 7 mps 748 mmHg 63%
    04:00 0°C° 0 mm 8 mps 748 mmHg 63%
    05:00 0°C° 0 mm 8 mps 747 mmHg 63%
    06:00 +1°C° 0 mm 8 mps 746 mmHg 64%
    07:00 +1°C° 0 mm 8 mps 746 mmHg 64%
    08:00 +1°C° 0.3 mm 8 mps 746 mmHg 67%
    09:00 +2°C° 0.3 mm 7 mps 745 mmHg 71%
    10:00 +2°C° 0.3 mm 7 mps 745 mmHg 74%
    11:00 +2°C° 0.9 mm 7 mps 745 mmHg 78%
    12:00 +3°C° 0.9 mm 6 mps 745 mmHg 83%
    13:00 +3°C° 0.9 mm 6 mps 745 mmHg 87%
    14:00 +3°C° 0.4 mm 5 mps 745 mmHg 88%
    15:00 +3°C° 0.4 mm 5 mps 745 mmHg 89%
    16:00 +5°C° 0.4 mm 4 mps 745 mmHg 91%
    17:00 +5°C° 0 mm 4 mps 745 mmHg 90%
    18:00 +5°C° 0 mm 3 mps 745 mmHg 90%
    19:00 +5°C° 0 mm 3 mps 746 mmHg 90%
    20:00 +5°C° 0 mm 2 mps 746 mmHg 86%
    21:00 +5°C° 0 mm 2 mps 746 mmHg 83%
    22:00 +5°C° 0 mm 2 mps 746 mmHg 79%
    23:00 +5°C° 0 mm 2 mps 746 mmHg 79%

    23 October, Wednesday

    Time Temperature Precipitation Wind Pressure Humidity
    00:00 +5°C° 0 mm 2 mps 746 mmHg 78%
    01:00 +5°C° 0 mm 2 mps 747 mmHg 77%
    02:00 +4°C° 0 mm 2 mps 747 mmHg 80%
    03:00 +3°C° 0 mm 2 mps 747 mmHg 82%
    04:00 +3°C° 0 mm 2 mps 747 mmHg 85%
    05:00 +2°C° 0 mm 2 mps 748 mmHg 85%
    06:00 +2°C° 0 mm 2 mps 748 mmHg 86%
    07:00 +1°C° 0 mm 2 mps 748 mmHg 86%
    08:00 +2°C° 0 mm 2 mps 748 mmHg 82%
    09:00 +3°C° 0 mm 2 mps 748 mmHg 78%
    10:00 +3°C° 0 mm 2 mps 748 mmHg 74%
    11:00 +4°C° 0 mm 2 mps 748 mmHg 68%
    12:00 +5°C° 0 mm 2 mps 748 mmHg 62%
    13:00 +5°C° 0 mm 2 mps 748 mmHg 56%
    14:00 +5°C° 0 mm 2 mps 747 mmHg 57%
    15:00 +4°C° 0 mm 3 mps 747 mmHg 59%
    16:00 +4°C° 0 mm 3 mps 747 mmHg 61%
    17:00 +4°C° 0 mm 3 mps 747 mmHg 65%
    18:00 +3°C° 0 mm 3 mps 747 mmHg 69%
    19:00 +2°C° 0 mm 3 mps 746 mmHg 74%
    20:00 +3°C° 0 mm 3 mps 746 mmHg 74%
    21:00 +3°C° 0 mm 4 mps 746 mmHg 74%
    22:00 +3°C° 0 mm 4 mps 746 mmHg 74%
    23:00 +3°C° 0 mm 4 mps 745 mmHg 75%

    24 October, Thursday

    Time Temperature Precipitation Wind Pressure Humidity
    00:00 +3°C° 0 mm 5 mps 745 mmHg 76%
    01:00 +3°C° 0 mm 5 mps 745 mmHg 77%
    02:00 +3°C° 0 mm 5 mps 745 mmHg 78%
    03:00 +3°C° 0 mm 5 mps 745 mmHg 80%
    04:00 +3°C° 0 mm 5 mps 745 mmHg 81%
    05:00 +3°C° 0 mm 5 mps 745 mmHg 84%
    06:00 +4°C° 0 mm 4 mps 745 mmHg 87%
    07:00 +4°C° 0 mm 4 mps 745 mmHg 89%
    08:00 +5°C° 0 mm 4 mps 745 mmHg 88%
    09:00 +6°C° 0 mm 4 mps 745 mmHg 86%
    10:00 +7°C° 0 mm 3 mps 746 mmHg 85%
    11:00 +8°C° 0 mm 3 mps 746 mmHg 84%
    12:00 +9°C° 0 mm 3 mps 746 mmHg 82%
    13:00 +9°C° 0 mm 3 mps 746 mmHg 81%
    14:00 +9°C° 0 mm 3 mps 746 mmHg 82%
    15:00 +9°C° 0 mm 3 mps 747 mmHg 83%
    16:00 +9°C° 0 mm 3 mps 747 mmHg 84%
    17:00 +8°C° 0 mm 3 mps 747 mmHg 85%
    18:00 +8°C° 0 mm 3 mps 747 mmHg 85%
    19:00 +7°C° 0 mm 2 mps 748 mmHg 86%
    20:00 +7°C° 0 mm 2 mps 748 mmHg 87%
    21:00 +6°C° 0 mm 2 mps 748 mmHg 89%
    22:00 +6°C° 0 mm 2 mps 749 mmHg 90%
    23:00 +7°C° 0 mm 1 mps 749 mmHg 91%

    25 October, Friday

    Time Temperature Precipitation Wind Pressure Humidity
    00:00 +6°C° 0 mm 1 mps 749 mmHg 91%
    01:00 +6°C° 0 mm 1 mps 749 mmHg 92%
    02:00 +6°C° 0 mm 1 mps 749 mmHg 92%
    03:00 +6°C° 0 mm 1 mps 749 mmHg 92%
    04:00 +6°C° 0 mm 1 mps 749 mmHg 92%
    05:00 +6°C° 0 mm 1 mps 749 mmHg 92%
    06:00 +6°C° 0 mm 1 mps 749 mmHg 92%
    07:00 +6°C° 0 mm 1 mps 750 mmHg 92%
    08:00 +5°C° 0 mm 2 mps 750 mmHg 92%
    09:00 +6°C° 0 mm 2 mps 750 mmHg 93%
    10:00 +7°C° 0 mm 2 mps 750 mmHg 93%
    11:00 +7°C° 0.2 mm 2 mps 750 mmHg 93%
    12:00 +8°C° 0.2 mm 3 mps 750 mmHg 93%
    13:00 +9°C° 0.2 mm 3 mps 750 mmHg 94%
    14:00 +9°C° 0 mm 3 mps 750 mmHg 92%
    15:00 +9°C° 0 mm 3 mps 749 mmHg 91%
    16:00 +10°C° 0 mm 3 mps 749 mmHg 90%
    17:00 +10°C° 0 mm 3 mps 749 mmHg 90%
    18:00 +9°C° 0 mm 3 mps 749 mmHg 91%
    19:00 +9°C° 0 mm 3 mps 749 mmHg 91%
    20:00 +9°C° 0 mm 3 mps 750 mmHg 92%
    21:00 +9°C° 0 mm 3 mps 750 mmHg 92%
    22:00 +9°C° 0 mm 3 mps 750 mmHg 93%
    23:00 +9°C° 0 mm 3 mps 750 mmHg 93%
    Show more